This is the latest recevied weather packets stored in our database for station/object DO7ZT-10. If no packets are shown the sender has not sent any weather packets the latest 10 day(s).
| Time | Temp. | Humidity | Pressure | Rain* | Wind** | Luminosity | Snow |
|---|---|---|---|---|---|---|---|
| 1787798797 | 15° C | 74% | 1020.5 hPa | - | - | - | - |
| 1787797897 | 14.44° C | 74% | 1020.5 hPa | - | - | - | - |
| 1787796997 | 14.44° C | 74% | 1020.6 hPa | - | - | - | - |
| 1787796097 | 15° C | 73% | 1020.6 hPa | - | - | - | - |
| 1787795197 | 15° C | 72% | 1020.6 hPa | - | - | - | - |
| 1787794297 | 15° C | 72% | 1020.7 hPa | - | - | - | - |
| 1787793397 | 15° C | 74% | 1020.7 hPa | - | - | - | - |
| 1787792497 | 14.44° C | 74% | 1020.7 hPa | - | - | - | - |
| 1787791597 | 15° C | 74% | 1020.8 hPa | - | - | - | - |
| 1787790697 | 15° C | 73% | 1020.8 hPa | - | - | - | - |
| 1787789797 | 15° C | 73% | 1021 hPa | - | - | - | - |
| 1787788897 | 15.56° C | 70% | 1021 hPa | - | - | - | - |
| 1787787997 | 15.56° C | 69% | 1021.1 hPa | - | - | - | - |
| 1787787096 | 15.56° C | 71% | 1021.3 hPa | - | - | - | - |
| 1787786196 | 15.56° C | 71% | 1021.3 hPa | - | - | - | - |
| 1787785296 | 16.11° C | 70% | 1021.4 hPa | - | - | - | - |
| 1787784396 | 15.56° C | 70% | 1021.5 hPa | - | - | - | - |
| 1787783496 | 16.11° C | 69% | 1021.5 hPa | - | - | - | - |
| 1787782596 | 16.11° C | 68% | 1021.4 hPa | - | - | - | - |
| 1787781696 | 16.11° C | 68% | 1021.5 hPa | - | - | - | - |
| 1787780796 | 16.11° C | 69% | 1021.5 hPa | - | - | - | - |
| 1787779896 | 16.11° C | 69% | 1021.5 hPa | - | - | - | - |
| 1787778996 | 16.67° C | 67% | 1021.3 hPa | - | - | - | - |
| 1787778096 | 16.67° C | 65% | 1021.4 hPa | - | - | - | - |
| 1787777196 | 16.67° C | 67% | 1021.5 hPa | - | - | - | - |
* Rain since midnight (hover to see other rain measurements)
** Current wind speed in m/s (hover to see current wind gust speed)